Home   Weather   Romania   Oradea   Past weeks
Flag for Romania

Past Weather in Oradea, Romania — Yesterday and Last 2 Weeks

Currently: 37 °F. Clear. (Weather station: Oradea Airport, Romania). See more current weather

Past Weather in Oradea — Graph

°F

Oradea Temperature Yesterday

Maximum temperature yesterday: 43 °F (at 1:30 pm)
Minimum temperature yesterday: 36 °F (at 10:00 pm)
Average temperature yesterday: 39 °F

High & Low Weather Summary for the Past Weeks

 TemperatureHumidityPressure
High57 °F (Nov 14, 3:00 pm)100% (Nov 16, 10:00 am)30.39 "Hg (Nov 16, 10:00 am)
Low32 °F (Nov 25, 8:30 pm)41% (Nov 22, 1:30 pm)29.45 "Hg (Nov 18, 4:00 pm)
Average42 °F90%29.93 "Hg
* Reported Nov 14 12:00 pm — Nov 29 12:30 pm, Oradea. Weather by CustomWeather, © 2022

Note: Actual official high and low records may vary slightly from our data, if they occured in-between our weather recording intervals... More about our weather records

Oradea Weather History for the Previous 24 Hours

Scroll right to see more
 ConditionsComfort  
Time TempWeatherWind HumidityBarometerVisibility
12:30 pm
Tue, Nov 29
39 °FPassing clouds.6 mph87%30.18 "Hg4 mi
12:00 pm37 °FFog.6 mph93%30.18 "Hg3 mi
11:30 am37 °FPassing clouds.2 mph93%30.18 "Hg6 mi
11:00 am37 °FPassing clouds.1 mph93%30.18 "Hg4 mi
10:30 am34 °FFog.2 mph100%30.21 "Hg2 mi
10:00 am34 °FFog.5 mph100%30.18 "Hg1 mi
9:30 am34 °FFog.5 mph100%30.18 "Hg1 mi
9:00 am34 °FFog.6 mph100%30.18 "Hg1 mi
8:30 am34 °FFog.5 mph100%30.18 "Hg0 mi
7:30 am34 °FFog.3 mph100%30.18 "Hg1 mi
7:00 am36 °FFog.2 mph93%30.18 "Hg1 mi
6:30 am36 °FFog.2 mph93%30.18 "Hg2 mi
6:00 am36 °FFog.2 mph100%30.18 "Hg2 mi
5:30 am36 °FPassing clouds.5 mph93%30.18 "Hg3 mi
5:00 am37 °FLow clouds.1 mph93%30.18 "Hg2 mi
4:30 am37 °FFog.3 mph93%30.18 "Hg1 mi
4:00 am37 °FFog.3 mph93%30.18 "Hg1 mi
3:30 am37 °FFog.5 mph93%30.18 "Hg2 mi
3:00 am37 °FFog.5 mph100%30.18 "Hg2 mi
1:30 am37 °FFog.5 mph100%30.18 "Hg2 mi
1:00 am37 °FFog.6 mph93%30.21 "Hg2 mi
12:00 am39 °FFog.6 mph93%30.21 "Hg2 mi
11:30 pm
Mon, Nov 28
36 °FFog.3 mph100%30.21 "Hg2 mi
11:00 pm36 °FFog.5 mph100%30.21 "Hg2 mi
10:30 pm36 °FFog.3 mph100%30.21 "Hg2 mi
10:00 pm36 °FFog.3 mph100%30.21 "Hg3 mi
9:30 pm37 °FFog.3 mph93%30.21 "Hg3 mi
9:00 pm37 °FFog.6 mph100%30.21 "Hg3 mi
8:30 pm37 °FFog.5 mph100%30.21 "Hg3 mi
8:00 pm37 °FFog.5 mph93%30.21 "Hg3 mi
7:30 pm37 °FPassing clouds.7 mph93%30.21 "Hg4 mi
7:00 pm39 °FClear.3 mph93%30.21 "Hg4 mi
6:30 pm39 °FFog.3 mph93%30.21 "Hg3 mi
6:00 pm39 °FFog.5 mph93%30.21 "Hg3 mi
5:00 pm41 °FClear.5 mph87%30.21 "Hg4 mi
4:30 pm41 °FSunny.5 mph87%30.21 "Hg10 mi
4:00 pm43 °FSunny.3 mph81%30.21 "Hg10 mi
3:00 pm43 °FPassing clouds.3 mph76%30.21 "HgN/A
2:30 pm43 °FPassing clouds.3 mph76%30.21 "HgN/A
Weather by CustomWeather, © 2022

See weather overview